Salem, IL

8:40 PM CDT on March 25, 2017 (GMT -0500)
Salem-Leckrone

Weather History for KSLO - October, 2012

Change the Weather History Date:

Monday, October 8, 2012

  Actual Average Record
Temperature  
Mean Temperature 46 °F -  
Max Temperature 60 °F 72 °F 91 °F (2007)
Min Temperature 34 °F 47 °F 27 °F (1987)
Degree Days  
Heating Degree Days 18    
Moisture  
Dew Point 32 °F    
Average Humidity 60    
Maximum Humidity 93    
Minimum Humidity 28    
Precipitation  
Precipitation 0.00 in - - ()
Sea Level Pressure  
Sea Level Pressure 30.17 in    
Wind  
Wind Speed 3 mph (South)    
Max Wind Speed 10 mph    
Max Gust Speed -    
Visibility 10 miles    
Events      
Averages and records for this station are not official NWS values.
T = Trace of Precipitation, MM = Missing Value Source: NWS Daily Summary

Daily Weather History Graph

Daily Weather History Graph

Search for Another Location

Airport or City:

Trip Planner

Search our weather history database for the weather conditions in past years. The results will help you decide how hot, cold, wet, or windy it might be!

Date:

Astronomy

Oct. 08, 2012 Rise Set
Actual Time 6:58 AM CDT 6:27 PM CDT
Civil Twilight 6:32 AM CDT 6:53 PM CDT
Nautical Twilight 6:01 AM CDT 7:24 PM CDT
Astronomical Twilight 5:30 AM CDT 7:55 PM CDT
Moon No Moon Rise 2:12 PM CDT (10/8)
Length of Visible Light 12h 21m
Length of Day
11h 28m
Last Quarter, 46% of the Moon is Illuminated
Oct 8
Last Quarter
Oct 15
New
Oct 21
First Quarter
Oct 29
Full
Nov 6
Last Quarter

Hourly Weather History & Observations

Time (CDT) Temp. Windchill Dew Point Humidity Pressure Visibility Wind Dir Wind Speed Gust Speed Precip Events Conditions
12:15 AM 38.3 °F - 35.8 °F 91% 30.20 in 10.0 mi Calm Calm - N/A   Clear
12:35 AM 38.3 °F - 36.0 °F 91% 30.21 in 10.0 mi Calm Calm - N/A   Clear
12:55 AM 37.8 °F - 35.4 °F 91% 30.21 in 10.0 mi Calm Calm - N/A   Clear
1:15 AM 38.5 °F - 36.0 °F 91% 30.21 in 10.0 mi Calm Calm - N/A   Clear
1:35 AM 38.7 °F - 36.3 °F 91% 30.21 in 10.0 mi Calm Calm - N/A   Clear
1:55 AM 37.8 °F - 35.6 °F 92% 30.21 in 10.0 mi Calm Calm - N/A   Clear
2:15 AM 38.1 °F - 36.1 °F 93% 30.21 in 10.0 mi Calm Calm - N/A   Clear
2:35 AM 37.9 °F - 35.8 °F 92% 30.21 in 10.0 mi Calm Calm - N/A   Clear
2:55 AM 38.1 °F - 36.0 °F 92% 30.20 in 10.0 mi Calm Calm - N/A   Clear
3:15 AM 37.8 °F - 35.8 °F 93% 30.20 in 10.0 mi Calm Calm - N/A   Clear
3:35 AM 37.2 °F - 35.4 °F 93% 30.20 in 10.0 mi Calm Calm - N/A   Clear
3:55 AM 36.5 °F - 34.5 °F 93% 30.21 in 10.0 mi Calm Calm - N/A   Clear
4:15 AM 36.0 °F - 33.4 °F 91% 30.21 in 10.0 mi Calm Calm - N/A   Clear
4:35 AM 37.0 °F - 34.2 °F 89% 30.21 in 10.0 mi Calm Calm - N/A   Clear
4:55 AM 37.4 °F - 34.2 °F 88% 30.21 in 10.0 mi Calm Calm - N/A   Clear
5:15 AM 35.8 °F - 33.1 °F 90% 30.21 in 10.0 mi Calm Calm - N/A   Clear
5:35 AM 35.8 °F - 33.1 °F 90% 30.21 in 10.0 mi Calm Calm - N/A   Clear
5:55 AM 36.0 °F - 33.3 °F 90% 30.21 in 10.0 mi Calm Calm - N/A   Clear
6:15 AM 35.8 °F - 32.5 °F 88% 30.22 in 10.0 mi Calm Calm - N/A   Clear
6:35 AM 36.1 °F - 32.4 °F 86% 30.22 in 10.0 mi Calm Calm - N/A   Clear
6:55 AM 34.7 °F - 32.0 °F 90% 30.22 in 10.0 mi Calm Calm - N/A   Clear
7:15 AM 34.5 °F - 32.2 °F 91% 30.22 in 10.0 mi Calm Calm - N/A   Clear
7:35 AM 35.6 °F - 33.1 °F 91% 30.23 in 10.0 mi Calm Calm - N/A   Clear
7:55 AM 37.0 °F - 34.2 °F 89% 30.23 in 10.0 mi Calm Calm - N/A   Clear
8:15 AM 40.3 °F 38.2 °F 33.3 °F 76% 30.23 in 10.0 mi South 3.5 mph - N/A   Clear
8:35 AM 43.2 °F 40.5 °F 33.4 °F 69% 30.24 in 10.0 mi South 4.6 mph - N/A   Clear
8:55 AM 45.5 °F 43.2 °F 35.4 °F 68% 30.24 in 10.0 mi South 4.6 mph - N/A   Clear
9:15 AM 47.5 °F - 35.1 °F 62% 30.24 in 10.0 mi South 6.9 mph - N/A   Clear
9:35 AM 49.8 °F - 33.6 °F 54% 30.24 in 10.0 mi South 6.9 mph - N/A   Clear
9:55 AM 51.4 °F - 32.4 °F 48% 30.24 in 10.0 mi South 9.2 mph - N/A   Clear
10:15 AM 52.7 °F - 30.6 °F 43% 30.24 in 10.0 mi SSW 8.1 mph - N/A   Clear
10:35 AM 53.6 °F - 29.7 °F 40% 30.23 in 10.0 mi South 8.1 mph - N/A   Clear
10:55 AM 54.5 °F - 29.3 °F 38% 30.23 in 10.0 mi SSW 6.9 mph - N/A   Clear
11:15 AM 55.6 °F - 29.3 °F 37% 30.23 in 10.0 mi SW 9.2 mph - N/A   Clear
11:35 AM 55.6 °F - 27.9 °F 35% 30.23 in 10.0 mi SSW 6.9 mph - N/A   Clear
11:55 AM 55.6 °F - 25.7 °F 32% 30.22 in 10.0 mi SW 6.9 mph - N/A   Clear
12:15 PM 56.1 °F - 27.7 °F 34% 30.21 in 10.0 mi SW 10.4 mph - N/A   Clear
12:35 PM 57.2 °F - 26.6 °F 31% 30.21 in 10.0 mi SW 6.9 mph - N/A   Clear
12:55 PM 57.6 °F - 26.2 °F 30% 30.19 in 10.0 mi South 6.9 mph - N/A   Clear
1:15 PM 57.2 °F - 26.6 °F 31% 30.18 in 10.0 mi WSW 6.9 mph - N/A   Clear
1:35 PM 58.6 °F - 26.6 °F 29% 30.17 in 10.0 mi SW 4.6 mph - N/A   Clear
1:55 PM 58.1 °F - 25.7 °F 29% 30.16 in 10.0 mi South 6.9 mph - N/A   Clear
2:15 PM 58.8 °F - 26.1 °F 29% 30.15 in 10.0 mi SW 10.4 mph - N/A   Clear
2:35 PM 59.2 °F - 26.6 °F 29% 30.15 in 10.0 mi South 5.8 mph - N/A   Clear
2:55 PM 59.2 °F - 26.6 °F 29% 30.14 in 10.0 mi SW 6.9 mph - N/A   Clear
3:15 PM 59.2 °F - 27.1 °F 29% 30.13 in 10.0 mi SSW 5.8 mph - N/A   Clear
3:35 PM 59.4 °F - 27.7 °F 30% 30.13 in 10.0 mi South 9.2 mph - N/A   Clear
3:55 PM 59.9 °F - 27.1 °F 29% 30.12 in 10.0 mi South 6.9 mph - N/A   Clear
4:15 PM 59.5 °F - 26.6 °F 28% 30.11 in 7.0 mi SW 9.2 mph - N/A   Clear
4:35 PM 59.4 °F - 26.1 °F 28% 30.11 in 10.0 mi SSW 5.8 mph - N/A   Clear
4:55 PM 59.0 °F - 26.6 °F 29% 30.11 in 10.0 mi SSW 5.8 mph - N/A   Clear
5:15 PM 59.0 °F - 28.0 °F 31% 30.11 in 10.0 mi South 8.1 mph - N/A   Clear
5:35 PM 58.8 °F - 29.5 °F 33% 30.11 in 10.0 mi SSW 9.2 mph - N/A   Clear
5:55 PM 57.9 °F - 30.0 °F 35% 30.11 in 10.0 mi South 6.9 mph - N/A   Clear
6:15 PM 56.5 °F - 30.7 °F 38% 30.11 in 10.0 mi Calm Calm - N/A   Clear
6:35 PM 55.0 °F - 32.0 °F 42% 30.11 in 10.0 mi Calm Calm - N/A   Clear
6:55 PM 51.8 °F - 33.8 °F 50% 30.11 in 10.0 mi SSE 3.5 mph - N/A   Clear
7:15 PM 50.2 °F - 34.2 °F 54% 30.10 in 10.0 mi SSE 3.5 mph - N/A   Clear
7:35 PM 50.2 °F - 34.3 °F 55% 30.10 in 10.0 mi SE 4.6 mph - N/A   Clear
7:55 PM 50.0 °F - 33.8 °F 54% 30.10 in 10.0 mi SSE 4.6 mph - N/A   Clear
8:15 PM 49.5 °F - 33.6 °F 54% 30.10 in 10.0 mi SSE 3.5 mph - N/A   Clear
8:35 PM 49.1 °F - 33.8 °F 56% 30.11 in 10.0 mi SSE 4.6 mph - N/A   Clear
8:55 PM 48.6 °F - 34.0 °F 57% 30.11 in 10.0 mi SSE 4.6 mph - N/A   Clear
9:15 PM 48.6 °F - 34.0 °F 57% 30.11 in 10.0 mi SSE 4.6 mph - N/A   Clear
9:35 PM 48.2 °F - 34.0 °F 58% 30.12 in 10.0 mi SSE 3.5 mph - N/A   Clear
9:55 PM 48.0 °F - 34.2 °F 59% 30.12 in 10.0 mi South 3.5 mph - N/A   Clear
10:15 PM 47.5 °F - 34.3 °F 60% 30.12 in 10.0 mi SSE 3.5 mph - N/A   Clear
10:35 PM 47.5 °F - 34.2 °F 60% 30.12 in 10.0 mi South 4.6 mph - N/A   Clear
10:55 PM 47.3 °F - 34.5 °F 61% 30.12 in 10.0 mi South 4.6 mph - N/A   Clear
11:15 PM 46.9 °F - 34.3 °F 62% 30.11 in 10.0 mi SSE 3.5 mph - N/A   Clear
11:35 PM 46.6 °F - 34.3 °F 62% 30.11 in 10.0 mi SSE 3.5 mph - N/A   Clear
11:55 PM 46.6 °F - 34.7 °F 63% 30.10 in 10.0 mi South 3.5 mph - N/A   Clear